Other Surface Observations
Issued by NWS

Home | Current Version | Previous Version | Text Only | Print | Product List | Glossary On
Versions: 1 2 3 4 5 6 7 8 9 10 11 12 13 14 15 16 17 18 19 20 21 22 23 24 25 26 27 28 29 30 31 32 33 34 35 36 37 38 39 40 41 42 43 44 45 46 47 48 49 50
066
SXUS52 KTAE 301318
OSOTAE
OSOTAE
North Florida/South Alabama/Southwest Georgia Weather Roundup
National Weather Service Tallahassee Florida
900 AM EDT SAT JUL 30 2016

Note: "fair" indicates few or no clouds below 12,000 feet with no
significant weather and/or obstructions to visibility.

!FLZ017-115-028-034-025-301400
...North Florida...

CITY           SKY/WX    TMP DP  RH WIND       PRES   REMARKS
TALLAHASSEE    MOSUNNY   82  76  81 CALM      30.06R
APALACHICOLA   MOSUNNY   85  79  82 CALM      30.05R HX  98
PERRY          SUNNY     83  77  82 NW5       30.07R HX  91
CROSS CITY       N/A     83  75  77 N5        30.06R HX  90
JACKSONVILLE   MOSUNNY   82  76  81 W5        30.06R
$$

!FLZ112-006-005-002-011-301400
...Florida Panhandle...

CITY           SKY/WX    TMP DP  RH WIND       PRES   REMARKS
MARIANNA       SUNNY     81  78  91 W3        30.05R
BONIFAY        FAIR      80  77  90 CALM      30.06R
PANAMA CITY NW FAIR      83  77  82 NW6       30.04R HX  92
TYNDALL AFB    MOSUNNY   85  77  78 N5        30.05R HX  95
TYND DRONE APT NOT AVBL
DE FUNIAK SPR  FAIR      81  76  85 NW6       30.06R
EGLIN AFB      MOSUNNY   84  76  77 NW3       30.04R HX  92
DESTIN         MOSUNNY   88  79  74 VRB6      30.04R HX 103
HURLBURT       MOSUNNY   85  75  74 NW5       30.03R HX  93
CRESTVIEW      SUNNY     82  76  81 W3        30.06R
PENSACOLA      SUNNY     81  77  88 NW5       30.04R
$$

!ALZ063-066-301400
...South Alabama...

CITY           SKY/WX    TMP DP  RH WIND       PRES   REMARKS
DOTHAN         SUNNY     81  75  82 W8        30.09R
OZARK CAIRNS   SUNNY     78  77  97 W5        30.06R
FT RUCKER HELI SUNNY     79  74  84 VRB3      30.05R
RUCKER HELI 3  FAIR      79  75  86 W6        30.07R
RUCKER HELI 2  FAIR      80  75  84 W5        30.05R
FLORALA APT    SUNNY     81  75  82 CALM      30.07R
ANDALUSIA      SUNNY     84  75  74 W7        30.06R HX  92
TROY           SUNNY     78  74  87 CALM      30.06R
EUFALA         FAIR      82  73  74 VRB3      30.04R
MOBILE         MOSUNNY   81  75  82 W6        30.06R
$$

!GAZ120>161-301400
...Southwest and South Central Georgia...

CITY           SKY/WX    TMP DP  RH WIND       PRES   REMARKS
THOMASVILLE      N/A     82  79  89 CALM      30.08R HX  93
BAINBRIDGE     SUNNY     81  77  89 CALM      30.06S
MOODY AFB      SUNNY     82  74  77 W7        30.06R
VALDOSTA       SUNNY     82  77  84 VRB5      30.06R HX  90
MOULTRIE       SUNNY     81  73  78 W6        30.08R
BLAKELY        SUNNY     82  75  78 W5        30.06R
ALBANY         SUNNY     81  73  76 W6        30.08R
TIFTON         FAIR      81  74  78 W6        30.06S
FITZGERALD     FAIR      86  77  74 W7        30.08R HX  97
CORDELE        FAIR      83  74  74 W3        30.07R HX  90
AMERICUS       FAIR      79  70  73 NW8       30.08R
HOMERVILLE     FAIR      82  77  83 NW10      30.07R HX  91
$$

!GMZ750-755-770-775-301400
...Coastal and Buoy Obs...

STATION/POSITION TIME  TEMP    WIND        PRES    VSBY  WAVE
                       AIR SEA DIR/SP/G                  HT/PER
                 (UTC) (F)     (DEG/KT/KT) (MB)    (MI)  (FT/S)
KEATON BEACH     1300   84     340/  6/  9 1017.6R
CEDAR KEY        1300   84      60/  8/  9 1018.5R
C TOWER          1300   85     280/  8/  8 1018.6R
APALACHICOLA BUO 1250   87 88  300/  2/  4 1018.0R         1
PANAMA CITY BUOY 1250   85 87  260/  6/  8 1018.0R         1/ 4
MOBILE BUOY      1300   86 88  270/  8/ 10 1017.3R
ORANGE BCH AL BU 1250   86 87  300/ 10/ 12 1017.3R         2/ 3
$$




USA.gov is the U.S. government's official web portal to all federal, state and local government web resources and services.